This is the latest recevied weather packets stored in our database for station/object SP6W-10. If no packets are shown the sender has not sent any weather packets the latest 10 day(s).
| Time | Temp. | Humidity | Pressure | Rain* | Wind** | Luminosity | Snow |
|---|---|---|---|---|---|---|---|
| 1777191168 | 25.56° C | 23% | 1023.1 hPa | - | - | - | - |
| 1777189368 | 25° C | 25% | 1022.8 hPa | - | - | - | - |
| 1777187568 | 25° C | 24% | 1022.3 hPa | - | - | - | - |
| 1777185767 | 25° C | 23% | 1021.9 hPa | - | - | - | - |
| 1777183967 | 25° C | 22% | 1021.5 hPa | - | - | - | - |
| 1777182167 | 25° C | 21% | 1021.2 hPa | - | - | - | - |
| 1777180373 | 25° C | 21% | 1020.5 hPa | - | - | - | - |
| 1777178567 | 25.56° C | 21% | 1020.1 hPa | - | - | - | - |
| 1777176767 | 25.56° C | 21% | 1019.4 hPa | - | - | - | - |
| 1777174966 | 25.56° C | 21% | 1018.8 hPa | - | - | - | - |
| 1777173168 | 25.56° C | 21% | 1018.2 hPa | - | - | - | - |
| 1777171368 | 26.11° C | 21% | 1017.6 hPa | - | - | - | - |
| 1777169568 | 26.11° C | 21% | 1017.1 hPa | - | - | - | - |
| 1777167768 | 26.11° C | 20% | 1016.6 hPa | - | - | - | - |
| 1777165968 | 26.67° C | 20% | 1016.1 hPa | - | - | - | - |
| 1777164168 | 26.67° C | 20% | 1015.6 hPa | - | - | - | - |
| 1777162368 | 26.67° C | 20% | 1014.6 hPa | - | - | - | - |
| 1777160568 | 26.67° C | 20% | 1013.5 hPa | - | - | - | - |
| 1777158768 | 26.67° C | 20% | 1012.6 hPa | - | - | - | - |
| 1777156968 | 27.22° C | 19% | 1012.3 hPa | - | - | - | - |
| 1777155168 | 27.22° C | 19% | 1012.2 hPa | - | - | - | - |
| 1777153372 | 27.78° C | 18% | 1011.9 hPa | - | - | - | - |
| 1777151569 | 27.22° C | 18% | 1012 hPa | - | - | - | - |
| 1777149771 | 28.33° C | 16% | 1011.7 hPa | - | - | - | - |
| 1777147967 | 28.33° C | 15% | 1011.5 hPa | - | - | - | - |
* Rain since midnight (hover to see other rain measurements)
** Current wind speed in m/s (hover to see current wind gust speed)